Year,Month,Day,Hour,Minute,Value (Times are PST for temperature in C)
2006,10,11,00,00,11.60
2006,10,11,00,01,11.50
2006,10,11,00,02,11.40
2006,10,11,00,03,11.30
2006,10,11,00,04,11.20
2006,10,11,00,05,11.10
2006,10,11,00,06,11.00
2006,10,11,00,07,10.90
2006,10,11,00,08,10.90
2006,10,11,00,09,10.80
2006,10,11,00,10,10.70
2006,10,11,00,11,10.60
2006,10,11,00,12,10.60
2006,10,11,00,13,10.60
2006,10,11,00,14,10.60
2006,10,11,00,15,10.40
2006,10,11,00,16,10.40
2006,10,11,00,17,10.40
2006,10,11,00,18,10.40
2006,10,11,00,19,10.40
2006,10,11,00,20,10.40
2006,10,11,00,21,10.30
2006,10,11,00,22,10.30
2006,10,11,00,23,10.30
2006,10,11,00,24,10.30
2006,10,11,00,25,10.20
2006,10,11,00,26,10.20
2006,10,11,00,27,10.30
2006,10,11,00,28,10.30
2006,10,11,00,29,10.30
2006,10,11,00,30,10.40
2006,10,11,00,31,10.40
2006,10,11,00,32,10.40
2006,10,11,00,33,10.40
2006,10,11,00,34,10.40
2006,10,11,00,35,10.40
2006,10,11,00,36,10.40
2006,10,11,00,37,10.40
2006,10,11,00,38,10.40
2006,10,11,00,39,10.40
2006,10,11,00,40,10.40
2006,10,11,00,41,10.50
2006,10,11,00,42,10.60
2006,10,11,00,43,10.60
2006,10,11,00,44,10.60
2006,10,11,00,45,10.60
2006,10,11,00,46,10.60
2006,10,11,00,47,10.60
2006,10,11,00,48,10.60
2006,10,11,00,49,10.60
2006,10,11,00,50,10.60
2006,10,11,00,51,10.60
2006,10,11,00,52,10.60
2006,10,11,00,53,10.60
2006,10,11,00,54,10.60
2006,10,11,00,55,10.50
2006,10,11,00,56,10.40
2006,10,11,00,57,10.40
2006,10,11,00,58,10.50
2006,10,11,00,59,10.60
2006,10,11,01,00,10.60
2006,10,11,01,01,10.60
2006,10,11,01,02,10.60
2006,10,11,01,03,10.60
2006,10,11,01,04,10.60
2006,10,11,01,05,10.60
2006,10,11,01,06,10.60
2006,10,11,01,07,10.60
2006,10,11,01,08,10.60
2006,10,11,01,09,10.60
2006,10,11,01,10,10.60
2006,10,11,01,11,10.60
2006,10,11,01,12,10.60
2006,10,11,01,13,10.60
2006,10,11,01,14,10.40
2006,10,11,01,15,10.40
2006,10,11,01,16,10.40
2006,10,11,01,17,10.40
2006,10,11,01,18,10.40
2006,10,11,01,19,10.40
2006,10,11,01,20,10.30
2006,10,11,01,21,10.30
2006,10,11,01,22,10.20
2006,10,11,01,23,10.20
2006,10,11,01,24,10.20
2006,10,11,01,25,10.20
2006,10,11,01,26,10.10
2006,10,11,01,27,10.10
2006,10,11,01,28,10.10
2006,10,11,01,29,10.10
2006,10,11,01,30,10.10
2006,10,11,01,31,10.10
2006,10,11,01,32,10.00
2006,10,11,01,33,9.90
2006,10,11,01,34,9.90
2006,10,11,01,35,9.90
2006,10,11,01,36,9.90
2006,10,11,01,37,9.90
2006,10,11,01,38,9.90
2006,10,11,01,39,9.90
2006,10,11,01,40,9.90
2006,10,11,01,41,9.90
2006,10,11,01,42,9.90
2006,10,11,01,43,9.90
2006,10,11,01,44,9.80
2006,10,11,01,45,9.80
2006,10,11,01,46,9.70
2006,10,11,01,47,9.70
2006,10,11,01,48,9.60
2006,10,11,01,49,9.60
2006,10,11,01,50,9.50
2006,10,11,01,51,9.50
2006,10,11,01,52,9.40
2006,10,11,01,53,9.40
2006,10,11,01,54,9.40
2006,10,11,01,55,9.40
2006,10,11,01,56,9.40
2006,10,11,01,57,9.40
2006,10,11,01,58,9.40
2006,10,11,01,59,9.50
2006,10,11,02,00,9.50
2006,10,11,02,01,9.50
2006,10,11,02,02,9.50
2006,10,11,02,03,9.70
2006,10,11,02,04,9.70
2006,10,11,02,05,9.70
2006,10,11,02,06,9.70
2006,10,11,02,07,9.80
2006,10,11,02,08,9.80
2006,10,11,02,09,9.80
2006,10,11,02,10,9.80
2006,10,11,02,11,9.80
2006,10,11,02,12,9.80
2006,10,11,02,13,9.80
2006,10,11,02,14,9.80
2006,10,11,02,15,9.80
2006,10,11,02,16,9.80
2006,10,11,02,17,9.80
2006,10,11,02,18,9.80
2006,10,11,02,19,9.80
2006,10,11,02,20,9.80
2006,10,11,02,21,9.80
2006,10,11,02,22,9.70
2006,10,11,02,23,9.70
2006,10,11,02,24,9.70
2006,10,11,02,25,9.70
2006,10,11,02,26,9.70
2006,10,11,02,27,9.70
2006,10,11,02,28,9.70
2006,10,11,02,29,9.70
2006,10,11,02,30,9.70
2006,10,11,02,31,9.60
2006,10,11,02,32,9.60
2006,10,11,02,33,9.60
2006,10,11,02,34,9.60
2006,10,11,02,35,9.60
2006,10,11,02,36,9.50
2006,10,11,02,37,9.50
2006,10,11,02,38,9.50
2006,10,11,02,39,9.50
2006,10,11,02,40,9.60
2006,10,11,02,41,9.60
2006,10,11,02,42,9.60
2006,10,11,02,43,9.60
2006,10,11,02,44,9.60
2006,10,11,02,45,9.60
2006,10,11,02,46,9.60
2006,10,11,02,47,9.50
2006,10,11,02,48,9.50
2006,10,11,02,49,9.40
2006,10,11,02,50,9.30
2006,10,11,02,51,9.30
2006,10,11,02,52,9.20
2006,10,11,02,53,9.20
2006,10,11,02,54,9.20
2006,10,11,02,55,9.10
2006,10,11,02,56,9.10
2006,10,11,02,57,9.10
2006,10,11,02,58,9.10
2006,10,11,02,59,9.20
2006,10,11,03,00,9.20
2006,10,11,03,01,9.20
2006,10,11,03,02,9.30
2006,10,11,03,03,9.40
2006,10,11,03,04,9.50
2006,10,11,03,05,9.50
2006,10,11,03,06,9.60
2006,10,11,03,07,9.70
2006,10,11,03,08,9.70
2006,10,11,03,09,9.70
2006,10,11,03,10,9.70
2006,10,11,03,11,9.80
2006,10,11,03,12,9.80
2006,10,11,03,13,9.80
2006,10,11,03,14,9.80
2006,10,11,03,15,9.80
2006,10,11,03,16,9.80
2006,10,11,03,17,9.70
2006,10,11,03,18,9.70
2006,10,11,03,19,9.70
2006,10,11,03,20,9.70
2006,10,11,03,21,9.70
2006,10,11,03,22,9.70
2006,10,11,03,23,9.60
2006,10,11,03,24,9.60
2006,10,11,03,25,9.60
2006,10,11,03,26,9.50
2006,10,11,03,27,9.50
2006,10,11,03,28,9.50
2006,10,11,03,29,9.50
2006,10,11,03,30,9.50
2006,10,11,03,31,9.60
2006,10,11,03,32,9.60
2006,10,11,03,33,9.60
2006,10,11,03,34,9.70
2006,10,11,03,35,9.70
2006,10,11,03,36,9.70
2006,10,11,03,37,9.70
2006,10,11,03,38,9.70
2006,10,11,03,39,9.70
2006,10,11,03,40,9.70
2006,10,11,03,41,9.70
2006,10,11,03,42,9.70
2006,10,11,03,43,9.70
2006,10,11,03,44,9.70
2006,10,11,03,45,9.70
2006,10,11,03,46,9.70
2006,10,11,03,47,9.70
2006,10,11,03,48,9.70
2006,10,11,03,49,9.70
2006,10,11,03,50,9.70
2006,10,11,03,51,9.70
2006,10,11,03,52,9.70
2006,10,11,03,53,9.60
2006,10,11,03,54,9.60
2006,10,11,03,55,9.50
2006,10,11,03,56,9.50
2006,10,11,03,57,9.40
2006,10,11,03,58,9.30
2006,10,11,03,59,9.30
2006,10,11,04,00,9.20
2006,10,11,04,01,9.20
2006,10,11,04,02,9.10
2006,10,11,04,03,9.00
2006,10,11,04,04,9.00
2006,10,11,04,05,8.90
2006,10,11,04,06,8.90
2006,10,11,04,07,8.80
2006,10,11,04,08,8.70
2006,10,11,04,09,8.70
2006,10,11,04,10,8.60
2006,10,11,04,11,8.60
2006,10,11,04,12,8.60
2006,10,11,04,13,8.60
2006,10,11,04,14,8.60
2006,10,11,04,15,8.60
2006,10,11,04,16,8.50
2006,10,11,04,17,8.50
2006,10,11,04,18,8.50
2006,10,11,04,19,8.40
2006,10,11,04,20,8.40
2006,10,11,04,21,8.40
2006,10,11,04,22,8.40
2006,10,11,04,23,8.40
2006,10,11,04,24,8.30
2006,10,11,04,25,8.30
2006,10,11,04,26,8.30
2006,10,11,04,27,8.40
2006,10,11,04,28,8.40
2006,10,11,04,29,8.40
2006,10,11,04,30,8.40
2006,10,11,04,31,8.50
2006,10,11,04,32,8.50
2006,10,11,04,33,8.50
2006,10,11,04,34,8.50
2006,10,11,04,35,8.50
2006,10,11,04,36,8.40
2006,10,11,04,37,8.40
2006,10,11,04,38,8.30
2006,10,11,04,39,8.30
2006,10,11,04,40,8.20
2006,10,11,04,41,8.20
2006,10,11,04,42,8.10
2006,10,11,04,43,8.00
2006,10,11,04,44,8.00
2006,10,11,04,45,7.90
2006,10,11,04,46,7.90
2006,10,11,04,47,7.80
2006,10,11,04,48,7.80
2006,10,11,04,49,7.80
2006,10,11,04,50,7.80
2006,10,11,04,51,7.80
2006,10,11,04,52,7.80
2006,10,11,04,53,7.80
2006,10,11,04,54,7.80
2006,10,11,04,55,7.90
2006,10,11,04,56,7.90
2006,10,11,04,57,7.90
2006,10,11,04,58,7.90
2006,10,11,04,59,7.90
2006,10,11,05,00,7.90
2006,10,11,05,01,7.90
2006,10,11,05,02,8.00
2006,10,11,05,03,8.00
2006,10,11,05,04,7.90
2006,10,11,05,05,7.90
2006,10,11,05,06,7.90
2006,10,11,05,07,7.90
2006,10,11,05,08,7.90
2006,10,11,05,09,7.90
2006,10,11,05,10,7.90
2006,10,11,05,11,7.90
2006,10,11,05,12,7.90
2006,10,11,05,13,7.90
2006,10,11,05,14,7.90
2006,10,11,05,15,7.90
2006,10,11,05,16,7.90
2006,10,11,05,17,7.90
2006,10,11,05,18,7.80
2006,10,11,05,19,7.80
2006,10,11,05,20,7.80
2006,10,11,05,21,7.80
2006,10,11,05,22,7.80
2006,10,11,05,23,7.80
2006,10,11,05,24,7.80
2006,10,11,05,25,7.80
2006,10,11,05,26,7.80
2006,10,11,05,27,7.80
2006,10,11,05,28,7.80
2006,10,11,05,29,7.80
2006,10,11,05,30,7.80
2006,10,11,05,31,7.80
2006,10,11,05,32,7.80
2006,10,11,05,33,7.80
2006,10,11,05,34,7.80
2006,10,11,05,35,7.80
2006,10,11,05,36,7.80
2006,10,11,05,37,7.70
2006,10,11,05,38,7.70
2006,10,11,05,39,7.70
2006,10,11,05,40,7.70
2006,10,11,05,41,7.70
2006,10,11,05,42,7.70
2006,10,11,05,43,7.70
2006,10,11,05,44,7.80
2006,10,11,05,45,7.80
2006,10,11,05,46,7.80
2006,10,11,05,47,7.80
2006,10,11,05,48,7.80
2006,10,11,05,49,7.80
2006,10,11,05,50,7.90
2006,10,11,05,51,7.90
2006,10,11,05,52,7.90
2006,10,11,05,53,7.90
2006,10,11,05,54,7.90
2006,10,11,05,55,7.80
2006,10,11,05,56,7.80
2006,10,11,05,57,7.80
2006,10,11,05,58,7.80
2006,10,11,05,59,7.80
2006,10,11,06,00,7.80
2006,10,11,06,01,7.80
2006,10,11,06,02,7.70
2006,10,11,06,03,7.70
2006,10,11,06,04,7.70
2006,10,11,06,05,7.70
2006,10,11,06,06,7.70
2006,10,11,06,07,7.70
2006,10,11,06,08,7.70
2006,10,11,06,09,7.70
2006,10,11,06,10,7.70
2006,10,11,06,11,7.70
2006,10,11,06,12,7.70
2006,10,11,06,13,7.70
2006,10,11,06,14,7.70
2006,10,11,06,15,7.70
2006,10,11,06,16,7.60
2006,10,11,06,17,7.60
2006,10,11,06,18,7.60
2006,10,11,06,19,7.60
2006,10,11,06,20,7.60
2006,10,11,06,21,7.60
2006,10,11,06,22,7.60
2006,10,11,06,23,7.60
2006,10,11,06,24,7.60
2006,10,11,06,25,7.60
2006,10,11,06,26,7.60
2006,10,11,06,27,7.70
2006,10,11,06,28,7.70
2006,10,11,06,29,7.70
2006,10,11,06,30,7.80
2006,10,11,06,31,7.80
2006,10,11,06,32,7.80
2006,10,11,06,33,7.80
2006,10,11,06,34,7.80
2006,10,11,06,35,7.80
2006,10,11,06,36,7.90
2006,10,11,06,37,7.90
2006,10,11,06,38,7.90
2006,10,11,06,39,7.90
2006,10,11,06,40,8.00
2006,10,11,06,41,8.00
2006,10,11,06,42,8.00
2006,10,11,06,43,8.10
2006,10,11,06,44,8.10
2006,10,11,06,45,8.10
2006,10,11,06,46,8.10
2006,10,11,06,47,8.10
2006,10,11,06,48,8.10
2006,10,11,06,49,8.10
2006,10,11,06,50,8.10
2006,10,11,06,51,8.10
2006,10,11,06,52,8.10
2006,10,11,06,53,8.10
2006,10,11,06,54,8.10
2006,10,11,06,55,8.10
2006,10,11,06,56,8.10
2006,10,11,06,57,8.10
2006,10,11,06,58,8.10
2006,10,11,06,59,8.20
2006,10,11,07,00,8.20
2006,10,11,07,01,8.20
2006,10,11,07,02,8.20
2006,10,11,07,03,8.20
2006,10,11,07,04,8.20
2006,10,11,07,05,8.20
2006,10,11,07,06,8.20
2006,10,11,07,07,8.20
2006,10,11,07,08,8.20
2006,10,11,07,09,8.30
2006,10,11,07,10,8.30
2006,10,11,07,11,8.30
2006,10,11,07,12,8.30
2006,10,11,07,13,8.30
2006,10,11,07,14,8.30
2006,10,11,07,15,8.20
2006,10,11,07,16,8.20
2006,10,11,07,17,8.20
2006,10,11,07,18,8.20
2006,10,11,07,19,8.20
2006,10,11,07,20,8.20
2006,10,11,07,21,8.20
2006,10,11,07,22,8.20
2006,10,11,07,23,8.20
2006,10,11,07,24,8.20
2006,10,11,07,25,8.20
2006,10,11,07,26,8.20
2006,10,11,07,27,8.20
2006,10,11,07,28,8.20
2006,10,11,07,29,8.20
2006,10,11,07,30,8.20
2006,10,11,07,31,8.20
2006,10,11,07,32,8.20
2006,10,11,07,33,8.20
2006,10,11,07,34,8.20
2006,10,11,07,35,8.30
2006,10,11,07,36,8.30
2006,10,11,07,37,8.40
2006,10,11,07,38,8.50
2006,10,11,07,39,8.60
2006,10,11,07,40,8.60
2006,10,11,07,41,8.60
2006,10,11,07,42,8.60
2006,10,11,07,43,8.50
2006,10,11,07,44,8.40
2006,10,11,07,45,8.20
2006,10,11,07,46,8.10
2006,10,11,07,47,8.00
2006,10,11,07,48,8.00
2006,10,11,07,49,8.00
2006,10,11,07,50,8.00
2006,10,11,07,51,8.00
2006,10,11,07,52,8.00
2006,10,11,07,53,8.00
2006,10,11,07,54,8.10
2006,10,11,07,55,8.10
2006,10,11,07,56,8.20
2006,10,11,07,57,8.30
2006,10,11,07,58,8.30
2006,10,11,07,59,8.40
2006,10,11,08,00,8.50
2006,10,11,08,01,8.50
2006,10,11,08,02,8.60
2006,10,11,08,03,8.60
2006,10,11,08,04,8.70
2006,10,11,08,05,8.70
2006,10,11,08,06,8.80
2006,10,11,08,07,8.90
2006,10,11,08,08,9.00
2006,10,11,08,09,9.10
2006,10,11,08,10,9.10
2006,10,11,08,11,9.20
2006,10,11,08,12,9.20
2006,10,11,08,13,9.20
2006,10,11,08,14,9.20
2006,10,11,08,15,9.20
2006,10,11,08,16,9.30
2006,10,11,08,17,9.30
2006,10,11,08,18,9.30
2006,10,11,08,19,9.30
2006,10,11,08,20,9.30
2006,10,11,08,21,9.30
2006,10,11,08,22,9.30
2006,10,11,08,23,9.30
2006,10,11,08,24,9.30
2006,10,11,08,25,9.30
2006,10,11,08,26,9.40
2006,10,11,08,27,9.40
2006,10,11,08,28,9.40
2006,10,11,08,29,9.50
2006,10,11,08,30,9.50
2006,10,11,08,31,9.60
2006,10,11,08,32,9.60
2006,10,11,08,33,9.70
2006,10,11,08,34,9.70
2006,10,11,08,35,9.70
2006,10,11,08,36,9.70
2006,10,11,08,37,9.80
2006,10,11,08,38,9.80
2006,10,11,08,39,9.90
2006,10,11,08,40,9.90
2006,10,11,08,41,9.90
2006,10,11,08,42,9.90
2006,10,11,08,43,10.10
2006,10,11,08,44,10.20
2006,10,11,08,45,10.30
2006,10,11,08,46,10.40
2006,10,11,08,47,10.40
2006,10,11,08,48,10.50
2006,10,11,08,49,10.60
2006,10,11,08,50,10.60
2006,10,11,08,51,10.60
2006,10,11,08,52,10.60
2006,10,11,08,53,10.70
2006,10,11,08,54,10.70
2006,10,11,08,55,10.70
2006,10,11,08,56,10.80
2006,10,11,08,57,10.80
2006,10,11,08,58,10.90
2006,10,11,08,59,10.90
2006,10,11,09,00,10.90
2006,10,11,09,01,10.90
2006,10,11,09,02,11.00
2006,10,11,09,03,11.10
2006,10,11,09,04,11.10
2006,10,11,09,05,11.20
2006,10,11,09,06,11.30
2006,10,11,09,07,11.40
2006,10,11,09,08,11.60
2006,10,11,09,09,11.80
2006,10,11,09,10,11.90
2006,10,11,09,11,12.00
2006,10,11,09,12,12.00
2006,10,11,09,13,12.10
2006,10,11,09,14,12.20
2006,10,11,09,15,12.20
2006,10,11,09,16,12.30
2006,10,11,09,17,12.30
2006,10,11,09,18,12.30
2006,10,11,09,19,12.30
2006,10,11,09,20,12.30
2006,10,11,09,21,12.40
2006,10,11,09,22,12.50
2006,10,11,09,23,12.60
2006,10,11,09,24,12.70
2006,10,11,09,25,12.90
2006,10,11,09,26,13.00
2006,10,11,09,27,13.00
2006,10,11,09,28,13.10
2006,10,11,09,29,13.20
2006,10,11,09,30,13.30
2006,10,11,09,31,13.30
2006,10,11,09,32,13.40
2006,10,11,09,33,13.50
2006,10,11,09,34,13.50
2006,10,11,09,35,13.50
2006,10,11,09,36,13.60
2006,10,11,09,37,13.70
2006,10,11,09,38,13.70
2006,10,11,09,39,13.70
2006,10,11,09,40,13.70
2006,10,11,09,41,13.80
2006,10,11,09,42,13.80
2006,10,11,09,43,13.90
2006,10,11,09,44,13.90
2006,10,11,09,45,13.90
2006,10,11,09,46,13.90
2006,10,11,09,47,14.00
2006,10,11,09,48,14.00
2006,10,11,09,49,14.10
2006,10,11,09,50,14.10
2006,10,11,09,51,14.20
2006,10,11,09,52,14.20
2006,10,11,09,53,14.20
2006,10,11,09,54,14.20
2006,10,11,09,55,14.20
2006,10,11,09,56,14.20
2006,10,11,09,57,14.20
2006,10,11,09,58,14.30
2006,10,11,09,59,14.40
2006,10,11,10,00,14.40
2006,10,11,10,01,14.40
2006,10,11,10,02,14.50
2006,10,11,10,03,14.50
2006,10,11,10,04,14.60
2006,10,11,10,05,14.70
2006,10,11,10,06,14.80
2006,10,11,10,07,14.80
2006,10,11,10,08,14.90
2006,10,11,10,09,14.90
2006,10,11,10,10,14.90
2006,10,11,10,11,14.90
2006,10,11,10,12,14.90
2006,10,11,10,13,14.90
2006,10,11,10,14,14.90
2006,10,11,10,15,14.90
2006,10,11,10,16,15.00
2006,10,11,10,17,15.00
2006,10,11,10,18,15.00
2006,10,11,10,19,15.00
2006,10,11,10,20,14.90
2006,10,11,10,21,14.80
2006,10,11,10,22,14.80
2006,10,11,10,23,14.70
2006,10,11,10,24,14.70
2006,10,11,10,25,14.70
2006,10,11,10,26,14.70
2006,10,11,10,27,14.80
2006,10,11,10,28,14.90
2006,10,11,10,29,14.90
2006,10,11,10,30,15.00
2006,10,11,10,31,15.10
2006,10,11,10,32,15.20
2006,10,11,10,33,15.10
2006,10,11,10,34,15.10
2006,10,11,10,35,15.20
2006,10,11,10,36,15.10
2006,10,11,10,37,15.10
2006,10,11,10,38,15.10
2006,10,11,10,39,15.20
2006,10,11,10,40,15.20
2006,10,11,10,41,15.10
2006,10,11,10,42,15.10
2006,10,11,10,43,15.10
2006,10,11,10,44,15.00
2006,10,11,10,45,15.00
2006,10,11,10,46,15.00
2006,10,11,10,47,15.10
2006,10,11,10,48,15.30
2006,10,11,10,49,15.40
2006,10,11,10,50,15.50
2006,10,11,10,51,15.60
2006,10,11,10,52,15.70
2006,10,11,10,53,15.80
2006,10,11,10,54,15.80
2006,10,11,10,55,15.90
2006,10,11,10,56,15.90
2006,10,11,10,57,16.00
2006,10,11,10,58,16.10
2006,10,11,10,59,16.10
2006,10,11,11,00,16.10
2006,10,11,11,01,16.00
2006,10,11,11,02,15.80
2006,10,11,11,03,15.60
2006,10,11,11,04,15.40
2006,10,11,11,05,15.30
2006,10,11,11,06,15.10
2006,10,11,11,07,15.10
2006,10,11,11,08,15.20
2006,10,11,11,09,15.30
2006,10,11,11,10,15.30
2006,10,11,11,11,15.40
2006,10,11,11,12,15.50
2006,10,11,11,13,15.60
2006,10,11,11,14,15.80
2006,10,11,11,15,15.80
2006,10,11,11,16,15.70
2006,10,11,11,17,15.60
2006,10,11,11,18,15.50
2006,10,11,11,19,15.40
2006,10,11,11,20,15.30
2006,10,11,11,21,15.30
2006,10,11,11,22,15.30
2006,10,11,11,23,15.30
2006,10,11,11,24,15.30
2006,10,11,11,25,15.20
2006,10,11,11,26,15.20
2006,10,11,11,27,15.20
2006,10,11,11,28,15.20
2006,10,11,11,29,15.20
2006,10,11,11,30,15.20
2006,10,11,11,31,15.30
2006,10,11,11,32,15.40
2006,10,11,11,33,15.50
2006,10,11,11,34,15.60
2006,10,11,11,35,15.60
2006,10,11,11,36,15.70
2006,10,11,11,37,15.80
2006,10,11,11,38,16.00
2006,10,11,11,39,16.10
2006,10,11,11,40,16.20
2006,10,11,11,41,16.30
2006,10,11,11,42,16.30
2006,10,11,11,43,16.40
2006,10,11,11,44,16.40
2006,10,11,11,45,16.40
2006,10,11,11,46,16.40
2006,10,11,11,47,16.40
2006,10,11,11,48,16.40
2006,10,11,11,49,16.40
2006,10,11,11,50,16.50
2006,10,11,11,51,16.60
2006,10,11,11,52,16.70
2006,10,11,11,53,16.70
2006,10,11,11,54,16.80
2006,10,11,11,55,16.80
2006,10,11,11,56,16.90
2006,10,11,11,57,17.00
2006,10,11,11,58,17.20
2006,10,11,11,59,17.30
2006,10,11,12,00,17.30
2006,10,11,12,01,17.30
2006,10,11,12,02,17.20
2006,10,11,12,03,17.10
2006,10,11,12,04,17.00
2006,10,11,12,05,17.00
2006,10,11,12,06,16.90
2006,10,11,12,07,16.80
2006,10,11,12,08,16.80
2006,10,11,12,09,17.00
2006,10,11,12,10,17.00
2006,10,11,12,11,17.00
2006,10,11,12,12,17.20
2006,10,11,12,13,17.30
2006,10,11,12,14,17.30
2006,10,11,12,15,17.40
2006,10,11,12,16,17.40
2006,10,11,12,17,17.30
2006,10,11,12,18,17.30
2006,10,11,12,19,17.20
2006,10,11,12,20,17.00
2006,10,11,12,21,17.00
2006,10,11,12,22,16.80
2006,10,11,12,23,16.70
2006,10,11,12,24,16.90
2006,10,11,12,25,17.00
2006,10,11,12,26,17.00
2006,10,11,12,27,17.10
2006,10,11,12,28,17.00
2006,10,11,12,29,16.90
2006,10,11,12,30,16.90
2006,10,11,12,31,16.80
2006,10,11,12,32,16.70
2006,10,11,12,33,16.80
2006,10,11,12,34,17.00
2006,10,11,12,35,17.00
2006,10,11,12,36,17.20
2006,10,11,12,37,17.30
2006,10,11,12,38,17.30
2006,10,11,12,39,17.30
2006,10,11,12,40,17.40
2006,10,11,12,41,17.60
2006,10,11,12,42,17.70
2006,10,11,12,43,17.80
2006,10,11,12,44,17.80
2006,10,11,12,45,17.90
2006,10,11,12,46,17.90
2006,10,11,12,47,18.00
2006,10,11,12,48,17.90
2006,10,11,12,49,18.00
2006,10,11,12,50,18.10
2006,10,11,12,51,18.10
2006,10,11,12,52,18.20
2006,10,11,12,53,18.20
2006,10,11,12,54,18.20
2006,10,11,12,55,18.20
2006,10,11,12,56,18.20
2006,10,11,12,57,18.20
2006,10,11,12,58,18.20
2006,10,11,12,59,18.20
2006,10,11,13,00,18.20
2006,10,11,13,01,18.20
2006,10,11,13,02,18.20
2006,10,11,13,03,18.10
2006,10,11,13,04,18.10
2006,10,11,13,05,18.00
2006,10,11,13,06,18.00
2006,10,11,13,07,18.00
2006,10,11,13,08,17.90
2006,10,11,13,09,17.90
2006,10,11,13,10,17.90
2006,10,11,13,11,18.10
2006,10,11,13,12,18.10
2006,10,11,13,13,18.10
2006,10,11,13,14,18.10
2006,10,11,13,15,18.10
2006,10,11,13,16,18.10
2006,10,11,13,17,18.10
2006,10,11,13,18,18.10
2006,10,11,13,19,18.10
2006,10,11,13,20,18.10
2006,10,11,13,21,18.10
2006,10,11,13,22,18.20
2006,10,11,13,23,18.20
2006,10,11,13,24,18.20
2006,10,11,13,25,18.30
2006,10,11,13,26,18.40
2006,10,11,13,27,18.50
2006,10,11,13,28,18.60
2006,10,11,13,29,18.70
2006,10,11,13,30,18.70
2006,10,11,13,31,18.70
2006,10,11,13,32,18.70
2006,10,11,13,33,18.80
2006,10,11,13,34,18.90
2006,10,11,13,35,18.90
2006,10,11,13,36,18.90
2006,10,11,13,37,19.00
2006,10,11,13,38,19.10
2006,10,11,13,39,19.00
2006,10,11,13,40,18.90
2006,10,11,13,41,18.80
2006,10,11,13,42,18.70
2006,10,11,13,43,18.60
2006,10,11,13,44,18.60
2006,10,11,13,45,18.50
2006,10,11,13,46,18.50
2006,10,11,13,47,18.50
2006,10,11,13,48,18.50
2006,10,11,13,49,18.60
2006,10,11,13,50,18.70
2006,10,11,13,51,18.90
2006,10,11,13,52,18.90
2006,10,11,13,53,18.90
2006,10,11,13,54,18.90
2006,10,11,13,55,18.90
2006,10,11,13,56,18.90
2006,10,11,13,57,19.00
2006,10,11,13,58,19.10
2006,10,11,13,59,19.10
2006,10,11,14,00,19.00
2006,10,11,14,01,18.90
2006,10,11,14,02,18.70
2006,10,11,14,03,18.70
2006,10,11,14,04,18.70
2006,10,11,14,05,18.70
2006,10,11,14,06,18.60
2006,10,11,14,07,18.50
2006,10,11,14,08,18.30
2006,10,11,14,09,18.10
2006,10,11,14,10,17.90
2006,10,11,14,11,17.90
2006,10,11,14,12,17.90
2006,10,11,14,13,17.70
2006,10,11,14,14,17.50
2006,10,11,14,15,17.20
2006,10,11,14,16,17.00
2006,10,11,14,17,16.90
2006,10,11,14,18,17.00
2006,10,11,14,19,17.00
2006,10,11,14,20,17.10
2006,10,11,14,21,17.00
2006,10,11,14,22,16.90
2006,10,11,14,23,16.90
2006,10,11,14,24,16.90
2006,10,11,14,25,16.90
2006,10,11,14,26,16.80
2006,10,11,14,27,16.80
2006,10,11,14,28,16.70
2006,10,11,14,29,16.70
2006,10,11,14,30,16.60
2006,10,11,14,31,16.70
2006,10,11,14,32,16.70
2006,10,11,14,33,16.70
2006,10,11,14,34,16.70
2006,10,11,14,35,16.70
2006,10,11,14,36,16.70
2006,10,11,14,37,16.80
2006,10,11,14,38,16.90
2006,10,11,14,39,17.10
2006,10,11,14,40,17.00
2006,10,11,14,41,16.90
2006,10,11,14,42,16.90
2006,10,11,14,43,16.90
2006,10,11,14,44,17.00
2006,10,11,14,45,17.10
2006,10,11,14,46,17.30
2006,10,11,14,47,17.20
2006,10,11,14,48,17.10
2006,10,11,14,49,16.90
2006,10,11,14,50,16.80
2006,10,11,14,51,16.90
2006,10,11,14,52,16.90
2006,10,11,14,53,16.90
2006,10,11,14,54,16.80
2006,10,11,14,55,16.70
2006,10,11,14,56,16.70
2006,10,11,14,57,16.80
2006,10,11,14,58,16.90
2006,10,11,14,59,16.90
2006,10,11,15,00,16.90
2006,10,11,15,01,16.90
2006,10,11,15,02,16.70
2006,10,11,15,03,16.50
2006,10,11,15,04,16.20
2006,10,11,15,05,16.00
2006,10,11,15,06,15.90
2006,10,11,15,07,16.00
2006,10,11,15,08,16.10
2006,10,11,15,09,16.20
2006,10,11,15,10,16.10
2006,10,11,15,11,16.20
2006,10,11,15,12,16.30
2006,10,11,15,13,16.50
2006,10,11,15,14,16.70
2006,10,11,15,15,16.90
2006,10,11,15,16,17.00
2006,10,11,15,17,17.10
2006,10,11,15,18,17.00
2006,10,11,15,19,16.90
2006,10,11,15,20,16.90
2006,10,11,15,21,16.90
2006,10,11,15,22,17.00
2006,10,11,15,23,17.10
2006,10,11,15,24,17.10
2006,10,11,15,25,17.10
2006,10,11,15,26,17.10
2006,10,11,15,27,17.20
2006,10,11,15,28,17.20
2006,10,11,15,29,17.30
2006,10,11,15,30,17.30
2006,10,11,15,31,17.30
2006,10,11,15,32,17.40
2006,10,11,15,33,17.40
2006,10,11,15,34,17.50
2006,10,11,15,35,17.60
2006,10,11,15,36,17.70
2006,10,11,15,37,17.80
2006,10,11,15,38,17.70
2006,10,11,15,39,17.70
2006,10,11,15,40,17.70
2006,10,11,15,41,17.50
2006,10,11,15,42,17.50
2006,10,11,15,43,17.50
2006,10,11,15,44,17.60
2006,10,11,15,45,17.70
2006,10,11,15,46,17.80
2006,10,11,15,47,17.60
2006,10,11,15,48,17.30
2006,10,11,15,49,16.90
2006,10,11,15,50,16.50
2006,10,11,15,51,16.30
2006,10,11,15,52,16.20
2006,10,11,15,53,16.10
2006,10,11,15,54,16.10
2006,10,11,15,55,16.10
2006,10,11,15,56,16.10
2006,10,11,15,57,16.10
2006,10,11,15,58,16.00
2006,10,11,15,59,15.90
2006,10,11,16,00,15.70
2006,10,11,16,01,15.50
2006,10,11,16,02,15.30
2006,10,11,16,03,15.30
2006,10,11,16,04,15.20
2006,10,11,16,05,15.10
2006,10,11,16,06,15.10
2006,10,11,16,07,14.90
2006,10,11,16,08,14.80
2006,10,11,16,09,14.70
2006,10,11,16,10,14.60
2006,10,11,16,11,14.60
2006,10,11,16,12,14.70
2006,10,11,16,13,14.70
2006,10,11,16,14,14.60
2006,10,11,16,15,14.60
2006,10,11,16,16,14.50
2006,10,11,16,17,14.40
2006,10,11,16,18,14.40
2006,10,11,16,19,14.30
2006,10,11,16,20,14.20
2006,10,11,16,21,14.20
2006,10,11,16,22,14.20
2006,10,11,16,23,14.40
2006,10,11,16,24,14.50
2006,10,11,16,25,14.60
2006,10,11,16,26,14.60
2006,10,11,16,27,14.50
2006,10,11,16,28,14.40
2006,10,11,16,29,14.30
2006,10,11,16,30,14.20
2006,10,11,16,31,14.20
2006,10,11,16,32,14.20
2006,10,11,16,33,14.20
2006,10,11,16,34,14.20
2006,10,11,16,35,14.20
2006,10,11,16,36,14.20
2006,10,11,16,37,14.30
2006,10,11,16,38,14.40
2006,10,11,16,39,14.50
2006,10,11,16,40,14.50
2006,10,11,16,41,14.50
2006,10,11,16,42,14.50
2006,10,11,16,43,14.50
2006,10,11,16,44,14.40
2006,10,11,16,45,14.40
2006,10,11,16,46,14.40
2006,10,11,16,47,14.50
2006,10,11,16,48,14.50
2006,10,11,16,49,14.50
2006,10,11,16,50,14.70
2006,10,11,16,51,14.80
2006,10,11,16,52,14.90
2006,10,11,16,53,15.00
2006,10,11,16,54,15.00
2006,10,11,16,55,14.90
2006,10,11,16,56,14.80
2006,10,11,16,57,14.80
2006,10,11,16,58,14.80
2006,10,11,16,59,14.90
2006,10,11,17,00,14.90
2006,10,11,17,01,14.90
2006,10,11,17,02,15.00
2006,10,11,17,03,15.10
2006,10,11,17,04,15.20
2006,10,11,17,05,15.20
2006,10,11,17,06,15.30
2006,10,11,17,07,15.30
2006,10,11,17,08,15.20
2006,10,11,17,09,15.20
2006,10,11,17,10,15.20
2006,10,11,17,11,15.20
2006,10,11,17,12,15.20
2006,10,11,17,13,15.30
2006,10,11,17,14,15.30
2006,10,11,17,15,15.30
2006,10,11,17,16,15.30
2006,10,11,17,17,15.30
2006,10,11,17,18,15.30
2006,10,11,17,19,15.30
2006,10,11,17,20,15.40
2006,10,11,17,21,15.40
2006,10,11,17,22,15.40
2006,10,11,17,23,15.40
2006,10,11,17,24,15.40
2006,10,11,17,25,15.40
2006,10,11,17,26,15.30
2006,10,11,17,27,15.30
2006,10,11,17,28,15.50
2006,10,11,17,29,15.50
2006,10,11,17,30,15.50
2006,10,11,17,31,15.50
2006,10,11,17,32,15.50
2006,10,11,17,33,15.50
2006,10,11,17,34,15.50
2006,10,11,17,35,15.40
2006,10,11,17,36,15.40
2006,10,11,17,37,15.40
2006,10,11,17,38,15.40